China Lake, CA

3:56 PM PST on December 16, 2017 (GMT -0800)
China Lake NAWS

Weather History for KNID - September, 2014

Change the Weather History Date:

Friday, September 5, 2014

  Actual Average Record
Temperature  
Mean Temperature 81 °F -  
Max Temperature 99 °F 94 °F 102 °F (2006)
Min Temperature 63 °F 66 °F 52 °F (2000)
Cooling Degree Days 16    
Growing Degree Days 31 (Base 50)    
Moisture  
Dew Point 30 °F    
Average Humidity 18    
Maximum Humidity 31    
Minimum Humidity 5    
Precipitation  
Precipitation 0.00 in - - ()
Sea Level Pressure  
Sea Level Pressure 29.81 in    
Wind  
Wind Speed 7 mph (SSW)    
Max Wind Speed 13 mph    
Max Gust Speed 17 mph    
Visibility 10 miles    
Events      
Averages and records for this station are not official NWS values.
T = Trace of Precipitation, MM = Missing Value Source: NWS Daily Summary

Daily Weather History Graph

Daily Weather History Graph

Search for Another Location

Airport or City:

Trip Planner

Search our weather history database for the weather conditions in past years. The results will help you decide how hot, cold, wet, or windy it might be!

Date:

Astronomy

Sep. 05, 2014 Rise Set
Actual Time 6:25 AM PDT 7:12 PM PDT
Civil Twilight 6:00 AM PDT 7:38 PM PDT
Nautical Twilight 5:29 AM PDT 8:08 PM PDT
Astronomical Twilight 4:57 AM PDT 8:40 PM PDT
Moon 4:40 PM PDT (9/5) 2:30 AM PDT (9/5)
Length of Visible Light 13h 38m
Length of Day
12h 46m
Waxing Gibbous, 85% of the Moon is Illuminated
Sep 5
Waxing Gibbous
Sep 8
Full
Sep 15
Last Quarter
Sep 23
New
Oct 1
First Quarter

Hourly Weather History & Observations

Time (PDT) Temp. Dew Point Humidity Pressure Visibility Wind Dir Wind Speed Gust Speed Precip Events Conditions
12:56 AM 77.0 °F 39.0 °F 25% 29.72 in 10.0 mi South 11.5 mph - N/A   Clear
1:56 AM 73.0 °F 36.0 °F 26% 29.74 in 10.0 mi SW 3.5 mph - N/A   Clear
2:56 AM 70.0 °F 34.0 °F 27% 29.75 in 10.0 mi South 9.2 mph - N/A   Clear
3:56 AM 66.9 °F 33.1 °F 28% 29.76 in 10.0 mi Calm Calm - N/A   Clear
4:56 AM 64.0 °F 32.0 °F 30% 29.78 in 10.0 mi Variable 3.5 mph - N/A   Clear
5:56 AM 63.0 °F 32.0 °F 31% 29.80 in 10.0 mi SSW 6.9 mph - N/A   Clear
6:56 AM 64.9 °F 32.0 °F 29% 29.84 in 10.0 mi SSW 3.5 mph - N/A   Clear
7:56 AM 72.0 °F 36.0 °F 27% 29.86 in 10.0 mi Variable 3.5 mph - N/A   Clear
8:56 AM 78.1 °F 37.0 °F 23% 29.88 in 10.0 mi Variable 3.5 mph - N/A   Clear
9:56 AM 81.0 °F 36.0 °F 20% 29.88 in 10.0 mi Calm Calm - N/A   Clear
10:56 AM 84.9 °F 36.0 °F 17% 29.88 in 10.0 mi West 3.5 mph - N/A   Clear
11:56 AM 89.1 °F 34.0 °F 14% 29.86 in 10.0 mi Calm Calm - N/A   Clear
12:56 PM 93.0 °F 30.0 °F 11% 29.84 in 10.0 mi East 3.5 mph - N/A   Clear
2:56 PM 98.1 °F 16.0 °F 5% 29.80 in 10.0 mi SSW 12.7 mph - N/A   Clear
3:56 PM 98.1 °F 19.0 °F 6% 29.79 in 10.0 mi South 10.4 mph - N/A   Clear
4:56 PM 99.0 °F 19.0 °F 6% 29.78 in 10.0 mi South 10.4 mph 17.3 mph N/A   Clear
5:56 PM 97.0 °F 21.0 °F 6% 29.78 in 10.0 mi South 12.7 mph - N/A   Clear
6:56 PM 93.9 °F 21.0 °F 7% 29.78 in 10.0 mi South 11.5 mph - N/A   Clear
7:56 PM 86.0 °F 21.9 °F 10% 29.80 in 10.0 mi SSW 8.1 mph - N/A   Clear
8:56 PM 84.0 °F 25.0 °F 12% 29.82 in 10.0 mi SSW 10.4 mph - N/A   Clear
9:56 PM 82.9 °F 28.0 °F 14% 29.84 in 10.0 mi SSW 12.7 mph - N/A   Clear
10:56 PM 80.1 °F 28.9 °F 15% 29.86 in 10.0 mi South 11.5 mph - N/A   Clear
11:56 PM 77.0 °F 33.1 °F 20% 29.86 in 10.0 mi South 11.5 mph - N/A   Clear